Year,Month,Day,Hour,Minute,Value (Times are PST for temperature in C)
2015,07,02,00,00,22.30
2015,07,02,00,01,22.30
2015,07,02,00,02,22.30
2015,07,02,00,03,22.30
2015,07,02,00,04,22.30
2015,07,02,00,05,22.30
2015,07,02,00,06,22.30
2015,07,02,00,07,22.30
2015,07,02,00,08,22.30
2015,07,02,00,09,22.20
2015,07,02,00,10,22.20
2015,07,02,00,11,22.20
2015,07,02,00,12,22.20
2015,07,02,00,13,22.10
2015,07,02,00,14,22.10
2015,07,02,00,15,22.10
2015,07,02,00,16,22.00
2015,07,02,00,17,22.00
2015,07,02,00,18,22.00
2015,07,02,00,19,22.00
2015,07,02,00,20,21.90
2015,07,02,00,21,21.90
2015,07,02,00,22,21.90
2015,07,02,00,23,21.90
2015,07,02,00,24,21.90
2015,07,02,00,25,21.90
2015,07,02,00,26,21.80
2015,07,02,00,27,21.80
2015,07,02,00,28,21.80
2015,07,02,00,29,21.80
2015,07,02,00,30,21.70
2015,07,02,00,31,21.70
2015,07,02,00,32,21.70
2015,07,02,00,33,21.70
2015,07,02,00,34,21.60
2015,07,02,00,35,21.60
2015,07,02,00,36,21.60
2015,07,02,00,37,21.60
2015,07,02,00,38,21.50
2015,07,02,00,39,21.50
2015,07,02,00,40,21.50
2015,07,02,00,41,21.40
2015,07,02,00,42,21.40
2015,07,02,00,43,21.40
2015,07,02,00,44,21.30
2015,07,02,00,45,21.30
2015,07,02,00,46,21.30
2015,07,02,00,47,21.20
2015,07,02,00,48,21.20
2015,07,02,00,49,21.20
2015,07,02,00,50,21.10
2015,07,02,00,51,21.10
2015,07,02,00,52,21.00
2015,07,02,00,53,21.00
2015,07,02,00,54,21.00
2015,07,02,00,55,20.90
2015,07,02,00,56,20.90
2015,07,02,00,57,20.80
2015,07,02,00,58,20.80
2015,07,02,00,59,20.80
2015,07,02,01,00,20.70
2015,07,02,01,01,20.70
2015,07,02,01,02,20.70
2015,07,02,01,03,20.70
2015,07,02,01,04,20.70
2015,07,02,01,05,20.60
2015,07,02,01,06,20.60
2015,07,02,01,07,20.60
2015,07,02,01,08,20.50
2015,07,02,01,09,20.50
2015,07,02,01,10,20.40
2015,07,02,01,11,20.40
2015,07,02,01,12,20.30
2015,07,02,01,13,20.30
2015,07,02,01,14,20.30
2015,07,02,01,15,20.20
2015,07,02,01,16,20.20
2015,07,02,01,17,20.20
2015,07,02,01,18,20.20
2015,07,02,01,19,20.10
2015,07,02,01,20,20.10
2015,07,02,01,21,20.10
2015,07,02,01,22,20.10
2015,07,02,01,23,20.10
2015,07,02,01,24,20.00
2015,07,02,01,25,20.00
2015,07,02,01,26,20.00
2015,07,02,01,27,20.00
2015,07,02,01,28,20.00
2015,07,02,01,29,19.90
2015,07,02,01,30,19.90
2015,07,02,01,31,19.90
2015,07,02,01,32,19.90
2015,07,02,01,33,19.80
2015,07,02,01,34,19.80
2015,07,02,01,35,19.80
2015,07,02,01,36,19.80
2015,07,02,01,37,19.70
2015,07,02,01,38,19.70
2015,07,02,01,39,19.70
2015,07,02,01,40,19.70
2015,07,02,01,41,19.70
2015,07,02,01,42,19.60
2015,07,02,01,43,19.60
2015,07,02,01,44,19.60
2015,07,02,01,45,19.60
2015,07,02,01,46,19.50
2015,07,02,01,47,19.50
2015,07,02,01,48,19.40
2015,07,02,01,49,19.40
2015,07,02,01,50,19.30
2015,07,02,01,51,19.30
2015,07,02,01,52,19.30
2015,07,02,01,53,19.20
2015,07,02,01,54,19.20
2015,07,02,01,55,19.20
2015,07,02,01,56,19.20
2015,07,02,01,57,19.10
2015,07,02,01,58,19.10
2015,07,02,01,59,19.00
2015,07,02,02,00,19.00
2015,07,02,02,01,18.90
2015,07,02,02,02,18.90
2015,07,02,02,03,18.90
2015,07,02,02,04,18.80
2015,07,02,02,05,18.80
2015,07,02,02,06,18.80
2015,07,02,02,07,18.80
2015,07,02,02,08,18.70
2015,07,02,02,09,18.70
2015,07,02,02,10,18.70
2015,07,02,02,11,18.70
2015,07,02,02,12,18.70
2015,07,02,02,13,18.60
2015,07,02,02,14,18.60
2015,07,02,02,15,18.60
2015,07,02,02,16,18.60
2015,07,02,02,17,18.50
2015,07,02,02,18,18.50
2015,07,02,02,19,18.50
2015,07,02,02,20,18.40
2015,07,02,02,21,18.40
2015,07,02,02,22,18.40
2015,07,02,02,23,18.40
2015,07,02,02,24,18.40
2015,07,02,02,25,18.40
2015,07,02,02,26,18.40
2015,07,02,02,27,18.30
2015,07,02,02,28,18.30
2015,07,02,02,29,18.30
2015,07,02,02,30,18.30
2015,07,02,02,31,18.30
2015,07,02,02,32,18.30
2015,07,02,02,33,18.30
2015,07,02,02,34,18.30
2015,07,02,02,35,18.20
2015,07,02,02,36,18.20
2015,07,02,02,37,18.20
2015,07,02,02,38,18.20
2015,07,02,02,39,18.10
2015,07,02,02,40,18.10
2015,07,02,02,41,18.10
2015,07,02,02,42,18.10
2015,07,02,02,43,18.10
2015,07,02,02,44,18.00
2015,07,02,02,45,18.00
2015,07,02,02,46,17.90
2015,07,02,02,47,17.90
2015,07,02,02,48,17.90
2015,07,02,02,49,17.90
2015,07,02,02,50,17.90
2015,07,02,02,51,17.80
2015,07,02,02,52,17.80
2015,07,02,02,53,17.80
2015,07,02,02,54,17.80
2015,07,02,02,55,17.80
2015,07,02,02,56,17.80
2015,07,02,02,57,17.70
2015,07,02,02,58,17.70
2015,07,02,02,59,17.70
2015,07,02,03,00,17.70
2015,07,02,03,01,17.60
2015,07,02,03,02,17.60
2015,07,02,03,03,17.60
2015,07,02,03,04,17.50
2015,07,02,03,05,17.50
2015,07,02,03,06,17.50
2015,07,02,03,07,17.40
2015,07,02,03,08,17.40
2015,07,02,03,09,17.40
2015,07,02,03,10,17.40
2015,07,02,03,11,17.40
2015,07,02,03,12,17.40
2015,07,02,03,13,17.30
2015,07,02,03,14,17.30
2015,07,02,03,15,17.30
2015,07,02,03,16,17.30
2015,07,02,03,17,17.30
2015,07,02,03,18,17.30
2015,07,02,03,19,17.20
2015,07,02,03,20,17.20
2015,07,02,03,21,17.20
2015,07,02,03,22,17.20
2015,07,02,03,23,17.20
2015,07,02,03,24,17.20
2015,07,02,03,25,17.10
2015,07,02,03,26,17.10
2015,07,02,03,27,17.10
2015,07,02,03,28,17.10
2015,07,02,03,29,17.10
2015,07,02,03,30,17.00
2015,07,02,03,31,17.00
2015,07,02,03,32,17.00
2015,07,02,03,33,17.00
2015,07,02,03,34,16.90
2015,07,02,03,35,16.90
2015,07,02,03,36,16.90
2015,07,02,03,37,16.90
2015,07,02,03,38,16.90
2015,07,02,03,39,16.80
2015,07,02,03,40,16.80
2015,07,02,03,41,16.80
2015,07,02,03,42,16.80
2015,07,02,03,43,16.80
2015,07,02,03,44,16.70
2015,07,02,03,45,16.70
2015,07,02,03,46,16.70
2015,07,02,03,47,16.70
2015,07,02,03,48,16.60
2015,07,02,03,49,16.60
2015,07,02,03,50,16.60
2015,07,02,03,51,16.60
2015,07,02,03,52,16.50
2015,07,02,03,53,16.50
2015,07,02,03,54,16.50
2015,07,02,03,55,16.40
2015,07,02,03,56,16.40
2015,07,02,03,57,16.40
2015,07,02,03,58,16.30
2015,07,02,03,59,16.30
2015,07,02,04,00,16.30
2015,07,02,04,01,16.30
2015,07,02,04,02,16.20
2015,07,02,04,03,16.20
2015,07,02,04,04,16.20
2015,07,02,04,05,16.20
2015,07,02,04,06,16.10
2015,07,02,04,07,16.10
2015,07,02,04,08,16.10
2015,07,02,04,09,16.10
2015,07,02,04,10,16.10
2015,07,02,04,11,16.10
2015,07,02,04,12,16.00
2015,07,02,04,13,16.00
2015,07,02,04,14,16.00
2015,07,02,04,15,16.00
2015,07,02,04,16,15.90
2015,07,02,04,17,15.90
2015,07,02,04,18,15.90
2015,07,02,04,19,15.90
2015,07,02,04,20,15.90
2015,07,02,04,21,15.90
2015,07,02,04,22,15.90
2015,07,02,04,23,15.90
2015,07,02,04,24,15.90
2015,07,02,04,25,15.90
2015,07,02,04,26,15.80
2015,07,02,04,27,15.80
2015,07,02,04,28,15.80
2015,07,02,04,29,15.80
2015,07,02,04,30,15.80
2015,07,02,04,31,15.80
2015,07,02,04,32,15.80
2015,07,02,04,33,15.80
2015,07,02,04,34,15.80
2015,07,02,04,35,15.80
2015,07,02,04,36,15.80
2015,07,02,04,37,15.80
2015,07,02,04,38,15.80
2015,07,02,04,39,15.80
2015,07,02,04,40,15.80
2015,07,02,04,41,15.70
2015,07,02,04,42,15.70
2015,07,02,04,43,15.70
2015,07,02,04,44,15.70
2015,07,02,04,45,15.70
2015,07,02,04,46,15.70
2015,07,02,04,47,15.60
2015,07,02,04,48,15.60
2015,07,02,04,49,15.60
2015,07,02,04,50,15.60
2015,07,02,04,51,15.50
2015,07,02,04,52,15.50
2015,07,02,04,53,15.50
2015,07,02,04,54,15.40
2015,07,02,04,55,15.40
2015,07,02,04,56,15.40
2015,07,02,04,57,15.40
2015,07,02,04,58,15.40
2015,07,02,04,59,15.40
2015,07,02,05,00,15.40
2015,07,02,05,01,15.40
2015,07,02,05,02,15.30
2015,07,02,05,03,15.30
2015,07,02,05,04,15.30
2015,07,02,05,05,15.30
2015,07,02,05,06,15.30
2015,07,02,05,07,15.30
2015,07,02,05,08,15.30
2015,07,02,05,09,15.30
2015,07,02,05,10,15.30
2015,07,02,05,11,15.30
2015,07,02,05,12,15.20
2015,07,02,05,13,15.20
2015,07,02,05,14,15.20
2015,07,02,05,15,15.20
2015,07,02,05,16,15.20
2015,07,02,05,17,15.20
2015,07,02,05,18,15.20
2015,07,02,05,19,15.20
2015,07,02,05,20,15.20
2015,07,02,05,21,15.20
2015,07,02,05,22,15.20
2015,07,02,05,23,15.20
2015,07,02,05,24,15.20
2015,07,02,05,25,15.20
2015,07,02,05,26,15.20
2015,07,02,05,27,15.20
2015,07,02,05,28,15.10
2015,07,02,05,29,15.10
2015,07,02,05,30,15.10
2015,07,02,05,31,15.10
2015,07,02,05,32,15.10
2015,07,02,05,33,15.10
2015,07,02,05,34,15.10
2015,07,02,05,35,15.10
2015,07,02,05,36,15.10
2015,07,02,05,37,15.10
2015,07,02,05,38,15.10
2015,07,02,05,39,15.10
2015,07,02,05,40,15.10
2015,07,02,05,41,15.10
2015,07,02,05,42,15.10
2015,07,02,05,43,15.10
2015,07,02,05,44,15.10
2015,07,02,05,45,15.10
2015,07,02,05,46,15.10
2015,07,02,05,47,15.10
2015,07,02,05,48,15.10
2015,07,02,05,49,15.10
2015,07,02,05,50,15.10
2015,07,02,05,51,15.10
2015,07,02,05,52,15.10
2015,07,02,05,53,15.10
2015,07,02,05,54,15.20
2015,07,02,05,55,15.20
2015,07,02,05,56,15.20
2015,07,02,05,57,15.20
2015,07,02,05,58,15.30
2015,07,02,05,59,15.30
2015,07,02,06,00,15.30
2015,07,02,06,01,15.30
2015,07,02,06,02,15.30
2015,07,02,06,03,15.30
2015,07,02,06,04,15.40
2015,07,02,06,05,15.40
2015,07,02,06,06,15.40
2015,07,02,06,07,15.40
2015,07,02,06,08,15.40
2015,07,02,06,09,15.40
2015,07,02,06,10,15.40
2015,07,02,06,11,15.50
2015,07,02,06,12,15.50
2015,07,02,06,13,15.50
2015,07,02,06,14,15.60
2015,07,02,06,15,15.60
2015,07,02,06,16,15.60
2015,07,02,06,17,15.50
2015,07,02,06,18,15.50
2015,07,02,06,19,15.60
2015,07,02,06,20,15.50
2015,07,02,06,21,15.60
2015,07,02,06,22,15.60
2015,07,02,06,23,15.60
2015,07,02,06,24,15.60
2015,07,02,06,25,15.60
2015,07,02,06,26,15.60
2015,07,02,06,27,15.70
2015,07,02,06,28,15.80
2015,07,02,06,29,15.80
2015,07,02,06,30,15.90
2015,07,02,06,31,15.90
2015,07,02,06,32,15.90
2015,07,02,06,33,15.90
2015,07,02,06,34,15.90
2015,07,02,06,35,16.00
2015,07,02,06,36,16.00
2015,07,02,06,37,16.10
2015,07,02,06,38,16.10
2015,07,02,06,39,16.10
2015,07,02,06,40,16.10
2015,07,02,06,41,16.10
2015,07,02,06,42,16.10
2015,07,02,06,43,16.20
2015,07,02,06,44,16.30
2015,07,02,06,45,16.30
2015,07,02,06,46,16.40
2015,07,02,06,47,16.50
2015,07,02,06,48,16.60
2015,07,02,06,49,16.60
2015,07,02,06,50,16.70
2015,07,02,06,51,16.80
2015,07,02,06,52,16.90
2015,07,02,06,53,16.90
2015,07,02,06,54,16.90
2015,07,02,06,55,16.90
2015,07,02,06,56,16.90
2015,07,02,06,57,16.90
2015,07,02,06,58,16.90
2015,07,02,06,59,16.90
2015,07,02,07,00,16.90
2015,07,02,07,01,17.00
2015,07,02,07,02,17.00
2015,07,02,07,03,17.10
2015,07,02,07,04,17.10
2015,07,02,07,05,17.10
2015,07,02,07,06,17.20
2015,07,02,07,07,17.20
2015,07,02,07,08,17.30
2015,07,02,07,09,17.40
2015,07,02,07,10,17.50
2015,07,02,07,11,17.50
2015,07,02,07,12,17.60
2015,07,02,07,13,17.60
2015,07,02,07,14,17.60
2015,07,02,07,15,17.70
2015,07,02,07,16,17.70
2015,07,02,07,17,17.70
2015,07,02,07,18,17.70
2015,07,02,07,19,17.70
2015,07,02,07,20,17.70
2015,07,02,07,21,17.70
2015,07,02,07,22,17.80
2015,07,02,07,23,17.70
2015,07,02,07,24,17.70
2015,07,02,07,25,17.70
2015,07,02,07,26,17.70
2015,07,02,07,27,17.80
2015,07,02,07,28,17.80
2015,07,02,07,29,17.80
2015,07,02,07,30,17.80
2015,07,02,07,31,17.80
2015,07,02,07,32,17.90
2015,07,02,07,33,18.00
2015,07,02,07,34,18.10
2015,07,02,07,35,18.20
2015,07,02,07,36,18.30
2015,07,02,07,37,18.40
2015,07,02,07,38,18.50
2015,07,02,07,39,18.50
2015,07,02,07,40,18.60
2015,07,02,07,41,18.60
2015,07,02,07,42,18.50
2015,07,02,07,43,18.60
2015,07,02,07,44,18.60
2015,07,02,07,45,18.70
2015,07,02,07,46,18.80
2015,07,02,07,47,18.80
2015,07,02,07,48,18.90
2015,07,02,07,49,18.90
2015,07,02,07,50,18.90
2015,07,02,07,51,19.00
2015,07,02,07,52,19.10
2015,07,02,07,53,19.10
2015,07,02,07,54,19.10
2015,07,02,07,55,19.10
2015,07,02,07,56,19.10
2015,07,02,07,57,19.20
2015,07,02,07,58,19.20
2015,07,02,07,59,19.30
2015,07,02,08,00,19.40
2015,07,02,08,01,19.50
2015,07,02,08,02,19.60
2015,07,02,08,03,19.70
2015,07,02,08,04,19.80
2015,07,02,08,05,19.90
2015,07,02,08,06,20.00
2015,07,02,08,07,20.10
2015,07,02,08,08,20.20
2015,07,02,08,09,20.30
2015,07,02,08,10,20.30
2015,07,02,08,11,20.40
2015,07,02,08,12,20.40
2015,07,02,08,13,20.40
2015,07,02,08,14,20.40
2015,07,02,08,15,20.40
2015,07,02,08,16,20.40
2015,07,02,08,17,20.50
2015,07,02,08,18,20.40
2015,07,02,08,19,20.40
2015,07,02,08,20,20.40
2015,07,02,08,21,20.40
2015,07,02,08,22,20.40
2015,07,02,08,23,20.40
2015,07,02,08,24,20.40
2015,07,02,08,25,20.50
2015,07,02,08,26,20.40
2015,07,02,08,27,20.40
2015,07,02,08,28,20.30
2015,07,02,08,29,20.30
2015,07,02,08,30,20.30
2015,07,02,08,31,20.30
2015,07,02,08,32,20.30
2015,07,02,08,33,20.30
2015,07,02,08,34,20.40
2015,07,02,08,35,20.50
2015,07,02,08,36,20.60
2015,07,02,08,37,20.60
2015,07,02,08,38,20.70
2015,07,02,08,39,20.70
2015,07,02,08,40,20.70
2015,07,02,08,41,20.70
2015,07,02,08,42,20.80
2015,07,02,08,43,20.90
2015,07,02,08,44,20.90
2015,07,02,08,45,21.00
2015,07,02,08,46,21.00
2015,07,02,08,47,20.90
2015,07,02,08,48,20.90
2015,07,02,08,49,20.90
2015,07,02,08,50,20.80
2015,07,02,08,51,20.80
2015,07,02,08,52,20.80
2015,07,02,08,53,20.80
2015,07,02,08,54,20.80
2015,07,02,08,55,20.80
2015,07,02,08,56,20.80
2015,07,02,08,57,20.80
2015,07,02,08,58,20.80
2015,07,02,08,59,20.90
2015,07,02,09,00,20.90
2015,07,02,09,01,21.00
2015,07,02,09,02,21.10
2015,07,02,09,03,21.20
2015,07,02,09,04,21.30
2015,07,02,09,05,21.40
2015,07,02,09,06,21.50
2015,07,02,09,07,21.60
2015,07,02,09,08,21.60
2015,07,02,09,09,21.60
2015,07,02,09,10,21.70
2015,07,02,09,11,21.60
2015,07,02,09,12,21.60
2015,07,02,09,13,21.50
2015,07,02,09,14,21.50
2015,07,02,09,15,21.50
2015,07,02,09,16,21.50
2015,07,02,09,17,21.60
2015,07,02,09,18,21.70
2015,07,02,09,19,21.70
2015,07,02,09,20,21.80
2015,07,02,09,21,21.90
2015,07,02,09,22,22.00
2015,07,02,09,23,22.00
2015,07,02,09,24,22.10
2015,07,02,09,25,22.20
2015,07,02,09,26,22.30
2015,07,02,09,27,22.40
2015,07,02,09,28,22.50
2015,07,02,09,29,22.60
2015,07,02,09,30,22.70
2015,07,02,09,31,22.80
2015,07,02,09,32,22.80
2015,07,02,09,33,22.80
2015,07,02,09,34,22.70
2015,07,02,09,35,22.70
2015,07,02,09,36,22.70
2015,07,02,09,37,22.70
2015,07,02,09,38,22.80
2015,07,02,09,39,22.80
2015,07,02,09,40,22.90
2015,07,02,09,41,23.00
2015,07,02,09,42,23.10
2015,07,02,09,43,23.10
2015,07,02,09,44,23.20
2015,07,02,09,45,23.30
2015,07,02,09,46,23.30
2015,07,02,09,47,23.30
2015,07,02,09,48,23.40
2015,07,02,09,49,23.40
2015,07,02,09,50,23.30
2015,07,02,09,51,23.40
2015,07,02,09,52,23.40
2015,07,02,09,53,23.40
2015,07,02,09,54,23.50
2015,07,02,09,55,23.50
2015,07,02,09,56,23.50
2015,07,02,09,57,23.60
2015,07,02,09,58,23.70
2015,07,02,09,59,23.70
2015,07,02,10,00,23.80
2015,07,02,10,01,23.80
2015,07,02,10,02,23.80
2015,07,02,10,03,23.90
2015,07,02,10,04,24.00
2015,07,02,10,05,24.10
2015,07,02,10,06,24.20
2015,07,02,10,07,24.20
2015,07,02,10,08,24.30
2015,07,02,10,09,24.30
2015,07,02,10,10,24.30
2015,07,02,10,11,24.30
2015,07,02,10,12,24.20
2015,07,02,10,13,24.20
2015,07,02,10,14,24.20
2015,07,02,10,15,24.30
2015,07,02,10,16,24.30
2015,07,02,10,17,24.40
2015,07,02,10,18,24.30
2015,07,02,10,19,24.20
2015,07,02,10,20,24.10
2015,07,02,10,21,24.10
2015,07,02,10,22,24.10
2015,07,02,10,23,24.10
2015,07,02,10,24,24.10
2015,07,02,10,25,24.20
2015,07,02,10,26,24.20
2015,07,02,10,27,24.30
2015,07,02,10,28,24.20
2015,07,02,10,29,24.10
2015,07,02,10,30,23.90
2015,07,02,10,31,23.80
2015,07,02,10,32,23.70
2015,07,02,10,33,23.60
2015,07,02,10,34,23.40
2015,07,02,10,35,23.30
2015,07,02,10,36,23.30
2015,07,02,10,37,23.30
2015,07,02,10,38,23.10
2015,07,02,10,39,22.90
2015,07,02,10,40,22.70
2015,07,02,10,41,22.60
2015,07,02,10,42,22.60
2015,07,02,10,43,22.60
2015,07,02,10,44,22.60
2015,07,02,10,45,22.60
2015,07,02,10,46,22.50
2015,07,02,10,47,22.50
2015,07,02,10,48,22.50
2015,07,02,10,49,22.30
2015,07,02,10,50,22.20
2015,07,02,10,51,22.10
2015,07,02,10,52,22.10
2015,07,02,10,53,22.10
2015,07,02,10,54,22.20
2015,07,02,10,55,22.30
2015,07,02,10,56,22.30
2015,07,02,10,57,22.30
2015,07,02,10,58,22.30
2015,07,02,10,59,22.30
2015,07,02,11,00,22.30
2015,07,02,11,01,22.40
2015,07,02,11,02,22.40
2015,07,02,11,03,22.50
2015,07,02,11,04,22.60
2015,07,02,11,05,22.60
2015,07,02,11,06,22.50
2015,07,02,11,07,22.50
2015,07,02,11,08,22.50
2015,07,02,11,09,22.50
2015,07,02,11,10,22.60
2015,07,02,11,11,22.60
2015,07,02,11,12,22.70
2015,07,02,11,13,22.70
2015,07,02,11,14,22.70
2015,07,02,11,15,22.70
2015,07,02,11,16,22.70
2015,07,02,11,17,22.70
2015,07,02,11,18,22.70
2015,07,02,11,19,22.70
2015,07,02,11,20,22.80
2015,07,02,11,21,22.80
2015,07,02,11,22,22.70
2015,07,02,11,23,22.60
2015,07,02,11,24,22.60
2015,07,02,11,25,22.60
2015,07,02,11,26,22.60
2015,07,02,11,27,22.70
2015,07,02,11,28,22.80
2015,07,02,11,29,22.80
2015,07,02,11,30,22.90
2015,07,02,11,31,23.10
2015,07,02,11,32,23.20
2015,07,02,11,33,23.30
2015,07,02,11,34,23.30
2015,07,02,11,35,23.30
2015,07,02,11,36,23.30
2015,07,02,11,37,23.30
2015,07,02,11,38,23.40
2015,07,02,11,39,23.40
2015,07,02,11,40,23.40
2015,07,02,11,41,23.50
2015,07,02,11,42,23.50
2015,07,02,11,43,23.60
2015,07,02,11,44,23.70
2015,07,02,11,45,23.80
2015,07,02,11,46,23.80
2015,07,02,11,47,23.80
2015,07,02,11,48,23.80
2015,07,02,11,49,23.80
2015,07,02,11,50,23.90
2015,07,02,11,51,23.90
2015,07,02,11,52,23.90
2015,07,02,11,53,23.90
2015,07,02,11,54,23.90
2015,07,02,11,55,23.80
2015,07,02,11,56,23.80
2015,07,02,11,57,23.80
2015,07,02,11,58,23.80
2015,07,02,11,59,23.80
2015,07,02,12,00,23.90
2015,07,02,12,01,23.90
2015,07,02,12,02,24.00
2015,07,02,12,03,24.00
2015,07,02,12,04,24.10
2015,07,02,12,05,24.00
2015,07,02,12,06,24.00
2015,07,02,12,07,23.90
2015,07,02,12,08,23.80
2015,07,02,12,09,23.80
2015,07,02,12,10,23.80
2015,07,02,12,11,23.80
2015,07,02,12,12,23.80
2015,07,02,12,13,23.80
2015,07,02,12,14,23.80
2015,07,02,12,15,23.80
2015,07,02,12,16,23.80
2015,07,02,12,17,23.80
2015,07,02,12,18,23.70
2015,07,02,12,19,23.80
2015,07,02,12,20,23.80
2015,07,02,12,21,23.80
2015,07,02,12,22,23.80
2015,07,02,12,23,23.80
2015,07,02,12,24,23.70
2015,07,02,12,25,23.80
2015,07,02,12,26,23.80
2015,07,02,12,27,24.00
2015,07,02,12,28,24.10
2015,07,02,12,29,24.10
2015,07,02,12,30,24.10
2015,07,02,12,31,24.20
2015,07,02,12,32,24.20
2015,07,02,12,33,24.20
2015,07,02,12,34,24.20
2015,07,02,12,35,24.10
2015,07,02,12,36,24.10
2015,07,02,12,37,24.10
2015,07,02,12,38,24.10
2015,07,02,12,39,24.10
2015,07,02,12,40,24.10
2015,07,02,12,41,24.10
2015,07,02,12,42,24.10
2015,07,02,12,43,24.20
2015,07,02,12,44,24.20
2015,07,02,12,45,24.20
2015,07,02,12,46,24.20
2015,07,02,12,47,24.20
2015,07,02,12,48,24.30
2015,07,02,12,49,24.30
2015,07,02,12,50,24.40
2015,07,02,12,51,24.50
2015,07,02,12,52,24.60
2015,07,02,12,53,24.60
2015,07,02,12,54,24.70
2015,07,02,12,55,24.80
2015,07,02,12,56,24.80
2015,07,02,12,57,24.80
2015,07,02,12,58,24.80
2015,07,02,12,59,24.90
2015,07,02,13,00,25.00
2015,07,02,13,01,25.00
2015,07,02,13,02,25.10
2015,07,02,13,03,25.10
2015,07,02,13,04,25.10
2015,07,02,13,05,25.10
2015,07,02,13,06,25.10
2015,07,02,13,07,25.00
2015,07,02,13,08,25.00
2015,07,02,13,09,24.90
2015,07,02,13,10,24.90
2015,07,02,13,11,24.90
2015,07,02,13,12,24.90
2015,07,02,13,13,24.90
2015,07,02,13,14,24.90
2015,07,02,13,15,24.90
2015,07,02,13,16,25.00
2015,07,02,13,17,25.10
2015,07,02,13,18,25.10
2015,07,02,13,19,25.20
2015,07,02,13,20,25.20
2015,07,02,13,21,25.20
2015,07,02,13,22,25.20
2015,07,02,13,23,25.20
2015,07,02,13,24,25.30
2015,07,02,13,25,25.30
2015,07,02,13,26,25.20
2015,07,02,13,27,25.30
2015,07,02,13,28,25.30
2015,07,02,13,29,25.30
2015,07,02,13,30,25.30
2015,07,02,13,31,25.30
2015,07,02,13,32,25.30
2015,07,02,13,33,25.30
2015,07,02,13,34,25.40
2015,07,02,13,35,25.50
2015,07,02,13,36,25.50
2015,07,02,13,37,25.60
2015,07,02,13,38,25.60
2015,07,02,13,39,25.60
2015,07,02,13,40,25.60
2015,07,02,13,41,25.60
2015,07,02,13,42,25.60
2015,07,02,13,43,25.70
2015,07,02,13,44,25.70
2015,07,02,13,45,25.70
2015,07,02,13,46,25.60
2015,07,02,13,47,25.60
2015,07,02,13,48,25.70
2015,07,02,13,49,25.60
2015,07,02,13,50,25.60
2015,07,02,13,51,25.60
2015,07,02,13,52,25.60
2015,07,02,13,53,25.70
2015,07,02,13,54,25.70
2015,07,02,13,55,25.70
2015,07,02,13,56,25.80
2015,07,02,13,57,25.90
2015,07,02,13,58,25.90
2015,07,02,13,59,25.90
2015,07,02,14,00,26.00
2015,07,02,14,01,26.10
2015,07,02,14,02,26.20
2015,07,02,14,03,26.20
2015,07,02,14,04,26.20
2015,07,02,14,05,26.30
2015,07,02,14,06,26.40
2015,07,02,14,07,26.50
2015,07,02,14,08,26.50
2015,07,02,14,09,26.50
2015,07,02,14,10,26.50
2015,07,02,14,11,26.40
2015,07,02,14,12,26.40
2015,07,02,14,13,26.50
2015,07,02,14,14,26.50
2015,07,02,14,15,26.60
2015,07,02,14,16,26.70
2015,07,02,14,17,26.70
2015,07,02,14,18,26.70
2015,07,02,14,19,26.70
2015,07,02,14,20,26.80
2015,07,02,14,21,26.90
2015,07,02,14,22,27.10
2015,07,02,14,23,27.10
2015,07,02,14,24,27.10
2015,07,02,14,25,27.10
2015,07,02,14,26,27.20
2015,07,02,14,27,27.30
2015,07,02,14,28,27.40
2015,07,02,14,29,27.50
2015,07,02,14,30,27.60
2015,07,02,14,31,27.60
2015,07,02,14,32,27.60
2015,07,02,14,33,27.50
2015,07,02,14,34,27.30
2015,07,02,14,35,27.20
2015,07,02,14,36,27.10
2015,07,02,14,37,27.10
2015,07,02,14,38,27.10
2015,07,02,14,39,27.20
2015,07,02,14,40,27.30
2015,07,02,14,41,27.30
2015,07,02,14,42,27.40
2015,07,02,14,43,27.50
2015,07,02,14,44,27.60
2015,07,02,14,45,27.60
2015,07,02,14,46,27.70
2015,07,02,14,47,27.70
2015,07,02,14,48,27.80
2015,07,02,14,49,27.80
2015,07,02,14,50,27.80
2015,07,02,14,51,27.70
2015,07,02,14,52,27.70
2015,07,02,14,53,27.70
2015,07,02,14,54,27.80
2015,07,02,14,55,27.90
2015,07,02,14,56,28.00
2015,07,02,14,57,28.10
2015,07,02,14,58,28.20
2015,07,02,14,59,28.20
2015,07,02,15,00,28.30
2015,07,02,15,01,28.30
2015,07,02,15,02,28.20
2015,07,02,15,03,28.20
2015,07,02,15,04,28.10
2015,07,02,15,05,28.10
2015,07,02,15,06,28.10
2015,07,02,15,07,28.10
2015,07,02,15,08,28.10
2015,07,02,15,09,28.10
2015,07,02,15,10,28.10
2015,07,02,15,11,28.20
2015,07,02,15,12,28.20
2015,07,02,15,13,28.20
2015,07,02,15,14,28.30
2015,07,02,15,15,28.30
2015,07,02,15,16,28.30
2015,07,02,15,17,28.30
2015,07,02,15,18,28.30
2015,07,02,15,19,28.30
2015,07,02,15,20,28.30
2015,07,02,15,21,28.40
2015,07,02,15,22,28.40
2015,07,02,15,23,28.40
2015,07,02,15,24,28.40
2015,07,02,15,25,28.40
2015,07,02,15,26,28.40
2015,07,02,15,27,28.40
2015,07,02,15,28,28.40
2015,07,02,15,29,28.30
2015,07,02,15,30,28.30
2015,07,02,15,31,28.30
2015,07,02,15,32,28.30
2015,07,02,15,33,28.30
2015,07,02,15,34,28.30
2015,07,02,15,35,28.40
2015,07,02,15,36,28.50
2015,07,02,15,37,28.60
2015,07,02,15,38,28.60
2015,07,02,15,39,28.70
2015,07,02,15,40,28.70
2015,07,02,15,41,28.70
2015,07,02,15,42,28.70
2015,07,02,15,43,28.70
2015,07,02,15,44,28.70
2015,07,02,15,45,28.70
2015,07,02,15,46,28.60
2015,07,02,15,47,28.60
2015,07,02,15,48,28.50
2015,07,02,15,49,28.40
2015,07,02,15,50,28.40
2015,07,02,15,51,28.30
2015,07,02,15,52,28.30
2015,07,02,15,53,28.30
2015,07,02,15,54,28.30
2015,07,02,15,55,28.30
2015,07,02,15,56,28.40
2015,07,02,15,57,28.40
2015,07,02,15,58,28.50
2015,07,02,15,59,28.60
2015,07,02,16,00,28.60
2015,07,02,16,01,28.60
2015,07,02,16,02,28.70
2015,07,02,16,03,28.60
2015,07,02,16,04,28.60
2015,07,02,16,05,28.60
2015,07,02,16,06,28.50
2015,07,02,16,07,28.50
2015,07,02,16,08,28.40
2015,07,02,16,09,28.40
2015,07,02,16,10,28.40
2015,07,02,16,11,28.50
2015,07,02,16,12,28.40
2015,07,02,16,13,28.50
2015,07,02,16,14,28.50
2015,07,02,16,15,28.60
2015,07,02,16,16,28.70
2015,07,02,16,17,28.70
2015,07,02,16,18,28.70
2015,07,02,16,19,28.70
2015,07,02,16,20,28.70
2015,07,02,16,21,28.70
2015,07,02,16,22,28.70
2015,07,02,16,23,28.70
2015,07,02,16,24,28.70
2015,07,02,16,25,28.70
2015,07,02,16,26,28.80
2015,07,02,16,27,28.80
2015,07,02,16,28,28.80
2015,07,02,16,29,28.80
2015,07,02,16,30,28.80
2015,07,02,16,31,28.80
2015,07,02,16,32,28.70
2015,07,02,16,33,28.70
2015,07,02,16,34,28.60
2015,07,02,16,35,28.60
2015,07,02,16,36,28.60
2015,07,02,16,37,28.60
2015,07,02,16,38,28.60
2015,07,02,16,39,28.60
2015,07,02,16,40,28.60
2015,07,02,16,41,28.60
2015,07,02,16,42,28.50
2015,07,02,16,43,28.50
2015,07,02,16,44,28.50
2015,07,02,16,45,28.50
2015,07,02,16,46,28.60
2015,07,02,16,47,28.50
2015,07,02,16,48,28.50
2015,07,02,16,49,28.50
2015,07,02,16,50,28.50
2015,07,02,16,51,28.60
2015,07,02,16,52,28.60
2015,07,02,16,53,28.60
2015,07,02,16,54,28.60
2015,07,02,16,55,28.60
2015,07,02,16,56,28.60
2015,07,02,16,57,28.60
2015,07,02,16,58,28.60
2015,07,02,16,59,28.60
2015,07,02,17,00,28.60
2015,07,02,17,01,28.70
2015,07,02,17,02,28.60
2015,07,02,17,03,28.60
2015,07,02,17,04,28.60
2015,07,02,17,05,28.70
2015,07,02,17,06,28.70
2015,07,02,17,07,28.70
2015,07,02,17,08,28.70
2015,07,02,17,09,28.70
2015,07,02,17,10,28.70
2015,07,02,17,11,28.60
2015,07,02,17,12,28.60
2015,07,02,17,13,28.60
2015,07,02,17,14,28.60
2015,07,02,17,15,28.50
2015,07,02,17,16,28.60
2015,07,02,17,17,28.60
2015,07,02,17,18,28.60
2015,07,02,17,19,28.60